TimeCET,TemperatureF,Dew PointF,Humidity,Sea Level PressureIn,VisibilityMPH,Wind Direction,Wind SpeedMPH,Gust SpeedMPH,PrecipitationIn,Events,Conditions,WindDirDegrees,DateUTC
12:00 AM,44.6,19.4,37,29.44,-9999.0,NNW,8.1,-,N/A,,Clear,330,2013-02-06 23:00:00
12:30 AM,44.6,19.4,37,29.44,-9999.0,NNW,6.9,-,N/A,,Clear,340,2013-02-06 23:30:00
1:00 AM,44,19,23,29.47,31,NW,5.8,,,,Partly Cloudy,310,2013-02-07 00:00:00
1:00 AM,42.8,19.4,39,29.44,-9999.0,NW,5.8,-,N/A,,Clear,310,2013-02-07 00:00:00
1:30 AM,44.6,17.6,34,29.44,-9999.0,NNW,6.9,-,N/A,,Clear,330,2013-02-07 00:30:00
2:00 AM,44.6,24.8,46,29.44,-9999.0,NW,4.6,-,N/A,,Clear,310,2013-02-07 01:00:00
2:30 AM,44.6,19.4,37,29.44,-9999.0,NW,6.9,-,N/A,,Clear,320,2013-02-07 01:30:00
3:00 AM,46.4,15.8,29,29.47,-9999.0,North,5.8,-,N/A,,Clear,350,2013-02-07 02:00:00
3:30 AM,46.4,19.4,34,29.47,-9999.0,West,3.5,-,N/A,,Clear,270,2013-02-07 02:30:00
4:00 AM,44.6,19.4,37,29.47,-9999.0,Calm,Calm,-,N/A,,Clear,0,2013-02-07 03:00:00
4:30 AM,44.6,12.2,27,29.47,-9999.0,Variable,3.5,-,N/A,,Clear,0,2013-02-07 03:30:00
5:00 AM,44.6,10.4,25,29.47,-9999.0,Variable,3.5,-,N/A,,Clear,0,2013-02-07 04:00:00
5:30 AM,44.6,10.4,25,29.47,-9999.0,North,4.6,-,N/A,,Clear,10,2013-02-07 04:30:00
6:00 AM,42.8,10.4,27,29.47,-9999.0,Variable,3.5,-,N/A,,Clear,0,2013-02-07 05:00:00
6:30 AM,42.8,10.4,27,29.50,-9999.0,NNW,6.9,-,N/A,,Clear,330,2013-02-07 05:30:00
7:00 AM,44,11,14,29.52,31,NNW,9.2,,,,Mostly Cloudy,340,2013-02-07 06:00:00
7:00 AM,44.6,10.4,25,29.50,-9999.0,North,9.2,-,N/A,,Clear,350,2013-02-07 06:00:00
7:30 AM,42.8,12.2,29,29.53,-9999.0,NNE,10.4,-,N/A,,Clear,20,2013-02-07 06:30:00
8:00 AM,46.4,10.4,23,29.53,6.2,North,9.2,-,N/A,,Mostly Cloudy,10,2013-02-07 07:00:00
8:30 AM,44.6,12.2,27,29.53,6.2,NNW,11.5,-,N/A,,Mostly Cloudy,340,2013-02-07 07:30:00
9:00 AM,44.6,12.2,27,29.56,6.2,NNW,11.5,-,N/A,,Mostly Cloudy,330,2013-02-07 08:00:00
9:30 AM,44.6,14.0,29,29.56,6.2,NNW,11.5,-,N/A,,Mostly Cloudy,330,2013-02-07 08:30:00
10:00 AM,46.4,14.0,27,29.59,6.2,NNW,6.9,-,N/A,,Mostly Cloudy,330,2013-02-07 09:00:00
10:30 AM,48.2,17.6,30,29.59,6.2,West,6.9,-,N/A,,Mostly Cloudy,280,2013-02-07 09:30:00
11:00 AM,50.0,12.2,22,29.59,6.2,NW,4.6,-,N/A,,Mostly Cloudy,310,2013-02-07 10:00:00
11:30 AM,51.8,14.0,22,29.62,6.2,SSW,6.9,-,N/A,,Mostly Cloudy,210,2013-02-07 10:30:00
12:00 PM,51.8,23.0,33,29.62,6.2,SW,4.6,-,N/A,,Mostly Cloudy,230,2013-02-07 11:00:00
12:30 PM,51.8,23.0,33,29.62,6.2,SSW,4.6,-,N/A,,Mostly Cloudy,210,2013-02-07 11:30:00
1:00 PM,53,17,13,29.64,31,South,4.6,,,,Scattered Clouds,190,2013-02-07 12:00:00
1:00 PM,53.6,19.4,26,29.62,6.2,South,3.5,-,N/A,,Mostly Cloudy,180,2013-02-07 12:00:00
1:30 PM,53.6,12.2,19,29.62,6.2,Variable,6.9,19.6,N/A,,Mostly Cloudy,0,2013-02-07 12:30:00
2:00 PM,53.6,14.0,21,29.62,6.2,NE,4.6,-,N/A,,Mostly Cloudy,50,2013-02-07 13:00:00
2:30 PM,53.6,10.4,18,29.62,6.2,Variable,3.5,-,N/A,,Mostly Cloudy,0,2013-02-07 13:30:00
3:00 PM,55.4,10.4,17,29.62,6.2,North,6.9,-,N/A,,Mostly Cloudy,10,2013-02-07 14:00:00
3:30 PM,55.4,19.4,25,29.62,6.2,SSE,4.6,-,N/A,,Mostly Cloudy,160,2013-02-07 14:30:00
4:00 PM,55.4,21.2,26,29.65,6.2,SSE,6.9,-,N/A,,Mostly Cloudy,160,2013-02-07 15:00:00
4:30 PM,55.4,23.0,29,29.65,6.2,South,5.8,-,N/A,,Mostly Cloudy,190,2013-02-07 15:30:00
5:00 PM,53.6,23.0,30,29.65,6.2,SW,6.9,-,N/A,,Mostly Cloudy,220,2013-02-07 16:00:00
5:30 PM,53.6,23.0,30,29.65,6.2,SW,8.1,-,N/A,,Scattered Clouds,230,2013-02-07 16:30:00
6:00 PM,51.8,23.0,33,29.68,6.2,SW,8.1,-,N/A,,Partly Cloudy,230,2013-02-07 17:00:00
6:30 PM,50.0,28.4,43,29.68,6.2,West,8.1,-,N/A,,Partly Cloudy,260,2013-02-07 17:30:00
7:00 PM,47,27,33,29.71,19,West,6.9,,,,Scattered Clouds,280,2013-02-07 18:00:00
7:00 PM,48.2,28.4,46,29.68,6.2,West,6.9,-,N/A,,Partly Cloudy,280,2013-02-07 18:00:00
7:30 PM,44.6,28.4,53,29.71,6.2,West,5.8,-,N/A,,Partly Cloudy,270,2013-02-07 18:30:00
8:00 PM,42.8,23.0,46,29.71,6.2,NNW,8.1,-,N/A,,Partly Cloudy,340,2013-02-07 19:00:00
8:30 PM,44.6,19.4,37,29.71,6.2,NNW,10.4,-,N/A,,Partly Cloudy,330,2013-02-07 19:30:00
9:00 PM,44.6,15.8,31,29.71,6.2,NW,3.5,-,N/A,,Partly Cloudy,320,2013-02-07 20:00:00
9:30 PM,44.6,14.0,29,29.71,6.2,NW,5.8,-,N/A,,Scattered Clouds,320,2013-02-07 20:30:00
10:00 PM,44.6,10.4,25,29.74,6.2,NNE,10.4,-,N/A,,Scattered Clouds,20,2013-02-07 21:00:00
10:30 PM,46.4,6.8,20,29.74,6.2,North,5.8,-,N/A,,Mostly Cloudy,10,2013-02-07 21:30:00
11:00 PM,44.6,10.4,25,29.74,6.2,NNW,6.9,-,N/A,,Mostly Cloudy,340,2013-02-07 22:00:00
11:30 PM,44.6,6.8,21,29.74,6.2,NNW,3.5,-,N/A,,Mostly Cloudy,330,2013-02-07 22:30:00